Location: Asheville, NC
(35.6000°N, 82.5500°W)
Time: 03:19:23
(UTC-04:00)

RS-15 - Pass Details

Date: 18 March 2018
Orbit: 1890 x 2154 km, 64.8° (Epoch: 19 June)

Event Time Altitude Azimuth Distance (km) Brightness Sun altitude
Exits shadow 03:55:59 - 307° (NW) 4,876 10.0 -42.9°
Reaches altitude 10° 03:57:46 10° 314° (NW) 4,619 9.9 -42.6°
Maximum altitude 04:03:59 15° 346° (NNW) 4,167 9.9 -41.6°
Drops below altitude 10° 04:10:05 10° 18° (NNE) 4,520 10.4 -40.6°
Sets 04:16:00 0° 41° (NE) 5,464 11.2 -39.6°
